This is the latest recevied weather packets stored in our database for station/object NUUKSIO. If no packets are shown the sender has not sent any weather packets the latest 10 day(s).
| Time | Temp. | Humidity | Pressure | Rain* | Wind** | Luminosity | Snow |
|---|---|---|---|---|---|---|---|
| 1778034440 | -1.67° C | 97% | 1010.5 hPa | 0 mm | - | - | - |
| 1778033240 | -1.67° C | 96% | 1010.3 hPa | 0 mm | - | - | - |
| 1778032040 | -1.67° C | 96% | 1010.2 hPa | 0 mm | - | - | - |
| 1778030840 | -1.67° C | 96% | 1010.1 hPa | 0 mm | - | - | - |
| 1778029640 | -1.67° C | 95% | 1010 hPa | 0 mm | - | - | - |
| 1778028439 | -1.67° C | 94% | 1009.8 hPa | 0 mm | - | - | - |
| 1778027240 | -1.11° C | 92% | 1009.6 hPa | 0 mm | - | - | - |
| 1778026040 | -1.11° C | 92% | 1009.6 hPa | 0 mm | - | - | - |
| 1778024840 | -0.56° C | 90% | 1009.4 hPa | 0 mm | - | - | - |
| 1778023640 | -0.56° C | 88% | 1009.3 hPa | 0 mm | - | - | - |
| 1778022439 | 0° C | 86% | 1009.1 hPa | 0 mm | - | - | - |
| 1778021239 | 0° C | 85% | 1009 hPa | 0 mm | - | - | - |
| 1778020039 | 0.56° C | 82% | 1008.9 hPa | 0 mm | - | - | - |
| 1778018839 | 1.11° C | 82% | 1008.8 hPa | 0 mm | - | - | - |
| 1778017640 | 1.11° C | 82% | 1008.7 hPa | 0 mm | - | - | - |
| 1778016439 | 1.11° C | 80% | 1008.5 hPa | 0 mm | - | - | - |
| 1778015239 | 1.11° C | 78% | 1008.3 hPa | 0 mm | - | - | - |
| 1778014039 | 1.67° C | 75% | 1008 hPa | 0 mm | - | - | - |
| 1778012839 | 2.22° C | 73% | 1007.8 hPa | 0 mm | - | - | - |
| 1778011639 | 2.22° C | 71% | 1007.6 hPa | 0 mm | - | - | - |
| 1778010438 | 2.78° C | 69% | 1007.5 hPa | 0 mm | - | - | - |
| 1778009239 | 3.33° C | 67% | 1007.4 hPa | 0 mm | - | - | - |
| 1778008039 | 3.89° C | 65% | 1007.1 hPa | 0 mm | - | - | - |
| 1778006838 | 3.89° C | 63% | 1006.9 hPa | 0 mm | - | - | - |
| 1778005638 | 5° C | 60% | 1006.7 hPa | 0 mm | - | - | - |
* Rain latest hour (hover to see other rain measurements)
** Current wind speed in m/s (hover to see current wind gust speed)